1501329601.18,20217,19.88,74274.5,17.49,-0.03,2.17,0,*6A
1501329602.4,20218,19.88,74272.8,17.49,0.37,2.39,0,*73
1501329603.6,20219,19.81,74268.5,17.45,0.17,2.27,0,*73
1501329604.82,20220,19.88,74274.0,17.45,0.41,2.39,0,*75
1501329606.07,20221,19.88,74272.5,17.43,0.51,2.55,0,*79
1501329607.29,20222,19.88,74274.0,17.49,0.33,2.09,0,*7D
1501329608.52,20223,19.88,74274.8,17.45,-0.27,1.33,0,*52
1501329609.77,20224,19.88,74274.0,17.43,0.29,1.63,0,*75
1501329611.0,20225,19.88,74274.5,17.41,0.91,2.13,0,*71
1501329612.21,20226,19.88,74272.0,17.41,0.97,1.85,0,*78
1501329613.44,20227,19.88,74272.3,17.41,1.25,2.01,0,*4E
1501329614.7,20228,19.88,74274.3,17.39,1.25,1.93,0,*46
1501329615.95,20229,19.88,74278.8,17.39,1.43,1.93,0,*47
1501329617.18,20230,19.88,74276.8,17.39,0.37,0.95,0,*4A
1501329618.37,20231,19.88,74276.5,17.37,0.59,1.05,0,*75
1501329619.62,20232,19.88,74274.0,17.35,0.47,0.83,0,*44
1501329620.83,20233,19.88,74274.8,17.33,0.41,0.41,0,*4B
1501329622.05,20234,19.88,74274.0,17.31,0.37,0.09,0,*73
1501329623.3,20235,19.88,74272.3,17.31,0.47,0.21,0,*4F
1501329624.53,20236,19.88,74274.8,17.27,0.97,0.55,0,*45
1501329625.79,20237,19.88,74276.8,17.27,1.33,0.83,0,*70
1501329627.01,20238,19.88,74278.8,17.27,0.95,0.43,0,*4E
1501329628.27,20239,19.88,74272.0,17.27,1.93,1.21,0,*4D
1501329629.47,20240,19.88,74274.0,17.21,1.75,0.79,0,*71
1501329630.69,20241,19.88,74278.5,17.21,1.25,0.17,0,*7D
1501329631.89,20242,19.88,74276.0,17.21,1.47,0.01,0,*4D
1501329633.12,20243,19.88,74276.8,17.21,2.09,0.63,0,*71
1501329634.34,20244,19.88,74276.0,17.21,2.25,0.67,0,*7C
1501329635.57,20245,19.88,74276.8,17.21,2.25,0.55,0,*7C
1501329636.77,20246,19.88,74276.0,17.21,2.31,0.51,0,*7E
1501329638.0,20247,19.88,74278.5,17.21,2.01,0.17,0,*7E
1501329639.23,20248,19.88,74278.5,17.19,1.75,-0.23,0,*50
1501329640.43,20249,19.88,74280.8,17.17,0.83,-1.29,0,*5C
1501329641.65,20250,19.88,74278.5,17.17,1.21,-0.77,0,*57
1501329642.86,20251,19.88,74280.0,17.17,1.17,-1.51,0,*66
1501329644.07,20252,19.88,74280.0,17.15,0.97,-1.51,0,*5E
1501329645.26,20253,19.88,74280.0,17.13,1.41,-1.17,0,*61
1501329646.48,20254,19.88,74276.3,17.13,1.55,-1.17,0,*63
1501329647.75,20255,19.88,74280.3,17.15,1.33,-1.47,0,*61
1501329649.0,20256,19.88,74280.8,17.15,1.09,-1.75,0,*6A
1501329650.24,20257,19.88,74282.3,17.09,1.09,-1.87,0,*6B
1501329651.46,20258,19.88,74276.3,17.11,0.97,-2.19,0,*5F
1501329652.69,20259,19.81,74276.8,17.09,0.71,-2.63,0,*52
1501329653.93,20260,19.88,74280.0,17.09,0.87,-2.59,0,*58
1501329655.19,20261,19.88,74282.5,17.11,1.51,-2.11,0,*66
1501329656.47,20262,19.88,74280.0,17.11,1.37,-2.47,0,*66
1501329657.73,20263,19.88,74280.8,17.11,1.47,-2.59,0,*6F
1501329658.99,20264,19.88,74282.5,17.11,1.59,-2.59,0,*67
1501329660.23,20265,19.88,74282.0,17.13,1.97,-2.59,0,*66
1501329661.47,20266,19.88,74280.3,17.15,2.43,-2.39,0,*6F
1501329662.68,20267,19.88,74282.5,17.17,1.93,-3.31,0,*6B
1501329663.92,20268,19.88,74282.0,17.19,1.63,-3.75,0,*65
1501329665.17,20269,19.88,74280.3,17.19,1.93,-3.63,0,*6C
1501329666.43,20270,19.88,74282.3,17.23,3.53,-2.07,0,*60
1501329667.65,20271,19.88,74280.3,17.29,4.33,-1.39,0,*64
1501329668.88,20272,19.88,74276.3,17.37,4.05,-1.95,0,*6B
1501329670.07,20273,19.88,74280.8,17.41,5.95,-0.11,0,*5E
1501329671.31,20274,19.88,74280.0,17.51,5.41,-1.05,0,*65
1501329672.54,20275,19.88,74282.3,17.55,5.07,-1.43,0,*60
1501329673.76,20276,19.88,74280.8,17.63,6.21,-0.45,0,*56
1501329674.98,20277,19.88,74282.8,17.73,6.33,-0.61,0,*53
1501329676.18,20278,19.88,74280.3,17.81,6.97,0.01,0,*44
1501329677.39,20279,19.88,74280.8,17.89,6.83,-0.37,0,*50
1501329678.62,20280,19.88,74276.3,17.99,6.39,-0.89,0,*53
1501329679.86,20281,19.88,74282.3,18.07,5.81,-1.75,0,*68
1501329681.08,20282,19.88,74282.0,18.17,5.71,-2.07,0,*63
1501329682.31,20283,19.88,74280.8,18.23,5.73,-2.19,0,*68
1501329683.55,20284,19.88,74282.5,18.31,5.05,-2.99,0,*65
1501329684.77,20285,19.88,74280.8,18.37,5.27,-2.91,0,*6A
1501329685.98,20286,19.88,74280.3,18.43,4.59,-3.83,0,*60
1501329687.19,20287,19.88,74282.0,18.51,3.19,-5.39,0,*66
1501329688.4,20288,19.88,74278.8,18.55,2.59,-6.13,0,*63
1501329689.63,20289,19.88,74282.5,18.59,1.47,-7.27,0,*64
1501329690.84,20290,19.88,74280.0,18.63,2.47,-6.05,0,*67
1501329692.09,20291,19.88,74282.5,18.71,3.53,-4.93,0,*6C
1501329693.34,20292,19.88,74282.5,18.75,1.97,-6.59,0,*65
1501329694.56,20293,19.88,74280.8,18.81,2.91,-5.19,0,*6D
1501329695.79,20294,19.88,74280.3,18.87,2.73,-5.35,0,*6E
1501329697.03,20295,19.88,74280.0,18.95,1.63,-6.43,0,*6C
1501329698.29,20296,19.88,74280.0,18.99,0.83,-7.27,0,*5F
1501329699.52,20297,19.88,74282.5,19.03,0.47,-7.43,0,*56
1501329700.71,20298,19.88,74282.3,19.03,-0.49,-8.29,0,*79
1501329701.96,20299,19.88,74282.5,19.09,0.13,-7.27,0,*51
1501329703.19,20300,19.88,74280.8,19.13,-1.09,-8.33,0,*46
1501329704.43,20301,19.88,74282.8,19.13,-1.13,-8.33,0,*4C
1501329705.69,20302,19.88,74280.0,19.17,-0.97,-8.03,0,*75
1501329706.89,20303,19.88,74280.5,19.17,0.01,-6.81,0,*62
1501329708.09,20304,19.88,74278.8,19.21,-0.15,-6.77,0,*71
1501329709.33,20305,19.88,74280.3,19.21,-0.65,-7.31,0,*74
1501329710.56,20306,19.88,74276.0,19.21,-1.47,-8.33,0,*4B
1501329711.8,20307,19.88,74280.5,19.21,-2.23,-9.15,0,*4E
1501329713.01,20308,19.88,74282.8,19.19,-1.91,-8.89,0,*44
1501329714.19,20309,19.88,74278.5,19.19,-1.75,-8.75,0,*4C
1501329715.38,20310,19.88,74282.5,19.19,-1.25,-8.29,0,*48
1501329716.59,20311,19.88,74280.8,19.19,-0.93,-7.87,0,*7E
1501329717.8,20312,19.88,74280.8,19.15,-0.73,-7.65,0,*73
1501329718.97,20313,19.88,74282.0,19.15,0.05,-6.73,0,*68
1501329720.17,20314,19.88,74280.0,19.15,0.41,-6.39,0,*51
1501329721.39,20315,19.88,74280.0,19.13,0.59,-5.97,0,*58
1501329722.64,20316,19.88,74282.5,19.11,1.09,-5.07,0,*64
1501329723.89,20317,19.88,74280.3,19.11,1.33,-4.81,0,*63
1501329725.11,20318,19.88,74278.5,19.11,1.71,-4.41,0,*66
1501329726.34,20319,19.88,74276.8,19.09,2.25,-3.75,0,*6C
1501329727.57,20320,19.88,74280.8,19.07,2.21,-3.67,0,*6F
1501329728.81,20321,19.88,74282.3,19.07,2.81,-2.67,0,*65
1501329730.0,20322,19.88,74278.5,19.07,2.95,-2.15,0,*66
1501329731.26,20323,19.88,74280.0,19.01,3.45,-1.01,0,*6B
1501329732.49,20324,19.88,74280.5,19.01,4.79,1.05,0,*4D
1501329733.72,20325,19.88,74280.8,19.01,4.19,0.37,0,*7A
1501329734.95,20326,19.88,74282.8,19.01,4.27,0.37,0,*74
1501329736.18,20327,19.88,74282.5,19.01,4.19,0.37,0,*78
1501329737.4,20328,19.88,74278.5,18.99,5.23,1.43,0,*4D
1501329738.62,20329,19.88,74278.8,18.99,5.19,1.43,0,*45
1501329739.88,20330,19.88,74280.0,18.99,5.01,1.21,0,*40
1501329741.08,20331,19.88,74278.8,19.03,5.23,1.47,0,*43
1501329742.31,20332,19.88,74280.8,19.01,5.37,1.67,0,*45
1501329743.56,20333,19.88,74280.8,18.99,5.01,1.33,0,*40
1501329744.79,20334,19.88,74280.0,18.99,5.89,2.31,0,*46
1501329746.05,20335,19.88,74278.8,18.99,6.51,3.15,0,*46
1501329747.31,20336,19.88,74278.5,19.01,6.39,3.11,0,*4F
1501329748.55,20337,19.88,74282.0,19.01,6.51,3.55,0,*40
1501329749.76,20338,19.88,74280.0,19.03,6.91,4.19,0,*4E
1501329751.0,20339,19.88,74282.3,19.07,7.23,4.71,0,*4D
1501329752.23,20340,19.88,74280.8,19.09,7.83,5.59,0,*4C
1501329753.45,20341,19.88,74282.3,19.09,7.05,5.07,0,*48
1501329754.65,20342,19.88,74282.0,19.13,7.45,5.71,0,*45
1501329755.85,20343,19.88,74282.3,19.13,7.01,5.63,0,*47
1501329757.07,20344,19.88,74280.5,19.17,7.05,5.67,0,*44
1501329758.3,20345,19.88,74280.8,19.17,7.05,5.89,0,*45
1501329759.52,20346,19.88,74282.3,19.19,6.91,5.89,0,*44
1501329760.75,20347,19.88,74278.0,19.21,7.41,6.43,0,*47
1501329761.98,20348,19.88,74280.0,19.25,7.37,6.43,0,*4D
1501329763.2,20349,19.88,74280.8,19.25,7.79,6.69,0,*4E
1501329764.41,20350,19.88,74282.3,19.35,8.15,6.97,0,*43
1501329765.64,20351,19.88,74284.0,19.35,8.01,6.91,0,*41
1501329766.85,20352,19.88,74280.8,19.39,8.65,7.79,0,*4B
1501329768.06,20353,19.88,74282.3,19.43,9.21,8.27,0,*42
1501329769.29,20354,19.88,74280.5,19.47,9.43,8.59,0,*4C
1501329770.5,20355,19.88,74282.5,19.53,9.81,9.03,0,*48
1501329771.71,20356,19.88,74282.3,19.57,9.85,9.07,0,*4F
1501329772.92,20357,19.88,74282.5,19.61,8.13,7.45,0,*4D
1501329774.14,20358,19.88,74282.8,19.61,7.27,6.57,0,*48
1501329775.34,20359,19.88,74282.0,19.63,7.97,7.29,0,*48
1501329776.58,20360,19.88,74278.0,19.65,8.41,7.79,0,*45
1501329777.76,20361,19.88,74280.0,19.67,8.61,8.15,0,*41
1501329778.99,20362,19.88,74280.8,19.71,8.75,8.13,0,*46
1501329780.22,20363,19.88,74282.3,19.75,9.01,8.41,0,*46
1501329781.46,20364,19.88,74280.5,19.77,8.47,8.05,0,*40
1501329782.66,20365,19.88,74282.0,19.79,7.87,7.51,0,*42
1501329783.85,20366,19.88,74278.3,19.79,8.29,7.97,0,*40
1501329785.05,20367,19.88,74280.0,19.83,8.65,8.29,0,*46
1501329786.31,20368,19.88,74278.0,19.85,8.93,8.59,0,*41
1501329787.51,20369,19.88,74282.3,19.87,9.07,8.71,0,*44
1501329788.69,20370,19.88,74276.5,19.91,9.29,8.87,0,*4E
1501329789.89,20371,19.88,74280.8,19.91,9.25,8.97,0,*42
1501329791.1,20372,19.88,74278.3,19.95,9.15,8.79,0,*46
1501329792.33,20373,19.88,74284.8,20.01,10.19,9.99,0,*7B
1501329793.57,20374,19.88,74282.8,20.03,10.79,10.65,0,*43
1501329794.8,20375,19.88,74282.3,20.07,10.47,10.19,0,*40
1501329796.01,20376,19.88,74286.0,20.09,10.51,10.33,0,*42
1501329797.26,20377,19.88,74282.8,20.13,10.23,10.13,0,*4F
1501329798.48,20378,19.88,74280.5,20.15,9.95,9.81,0,*40
1501329799.67,20379,19.88,74282.3,20.23,10.09,9.91,0,*78
1501329800.91,20380,19.88,74282.5,20.25,10.43,10.19,0,*4E
1501329802.11,20381,19.88,74286.3,20.29,9.61,9.33,0,*4B
1501329803.34,20382,19.88,74282.8,20.31,9.33,8.93,0,*4D
1501329804.57,20383,19.88,74284.3,20.33,9.57,9.15,0,*43
1501329805.79,20384,19.88,74284.0,20.35,8.83,8.27,0,*4A
1501329806.99,20385,19.88,74280.0,20.37,8.71,8.19,0,*49
1501329808.21,20386,19.88,74282.5,20.39,8.87,8.09,0,*4C
1501329809.42,20387,19.88,74286.3,20.39,8.27,7.37,0,*45
1501329810.62,20388,19.88,74284.8,20.45,7.41,6.17,0,*4D
1501329811.82,20389,19.88,74282.3,20.45,6.93,5.77,0,*47
1501329813.08,20390,19.88,74280.0,20.43,6.43,5.27,0,*41
1501329814.34,20391,19.88,74280.0,20.43,7.19,6.17,0,*4E
1501329815.59,20392,19.88,74280.8,20.43,7.65,6.65,0,*43
1501329816.81,20393,19.88,74282.5,20.43,7.77,6.75,0,*40
1501329818.08,20394,19.88,74280.8,20.47,9.01,8.37,0,*44
1501329819.28,20395,19.88,74280.8,20.49,9.21,8.55,0,*4D
1501329820.49,20396,19.88,74284.8,20.51,8.87,8.45,0,*4B
1501329821.68,20397,19.94,74286.3,20.53,8.23,7.79,0,*46
1501329822.92,20398,19.88,74280.0,20.55,8.23,8.13,0,*4C
1501329824.14,20399,19.88,74282.0,20.57,8.29,8.29,0,*4C
1501329825.39,20400,19.94,74286.5,20.61,8.75,8.75,0,*4E
1501329826.59,20401,19.88,74284.0,20.67,9.61,9.29,0,*45
1501329827.79,20402,19.94,74284.5,20.67,9.81,9.63,0,*46
1501329829.02,20403,19.88,74280.3,20.73,9.89,9.67,0,*4E
1501329830.24,20404,19.94,74284.5,20.75,10.55,10.27,0,*4A
1501329831.45,20405,19.94,74282.8,20.79,10.31,9.95,0,*74
1501329832.65,20406,19.88,74282.0,20.85,9.91,9.63,0,*4F
1501329833.9,20407,19.94,74282.5,20.89,10.71,10.65,0,*4A
1501329835.14,20408,19.88,74284.3,20.95,9.75,9.81,0,*46
1501329836.36,20409,19.88,74282.3,20.97,8.29,8.41,0,*40
1501329837.57,20410,19.94,74282.0,21.01,8.27,8.37,0,*49
1501329838.8,20411,19.88,74280.3,21.03,9.47,9.81,0,*41
1501329840.0,20412,19.94,74286.0,21.05,9.07,9.57,0,*4B
1501329841.24,20413,19.94,74284.3,21.11,9.67,10.41,0,*76
1501329842.48,20414,19.88,74280.5,21.15,10.33,11.03,0,*4B
1501329843.71,20415,19.88,74280.3,21.19,9.63,10.31,0,*7B
1501329844.92,20416,19.88,74282.5,21.23,9.67,10.43,0,*70
1501329846.11,20417,19.88,74282.5,21.25,9.07,9.71,0,*48
1501329847.36,20418,19.88,74280.5,21.27,8.87,9.81,0,*43
1501329848.53,20419,19.88,74282.5,21.29,8.65,9.63,0,*4C
1501329849.76,20420,19.88,74280.0,21.29,9.11,10.33,0,*79
1501329850.97,20421,19.94,74284.0,21.35,9.75,10.93,0,*7D
1501329852.2,20422,19.94,74286.5,21.37,9.39,10.47,0,*7D
1501329853.4,20423,19.88,74282.8,21.41,9.03,10.03,0,*74
1501329854.64,20424,19.94,74282.8,21.41,7.77,8.71,0,*42
1501329855.87,20425,19.94,74282.5,21.43,8.37,9.33,0,*4D
1501329857.09,20426,19.88,74280.3,21.45,9.15,10.03,0,*72
1501329858.33,20427,19.94,74282.8,21.47,7.05,7.65,0,*48
1501329859.6,20428,19.94,74286.5,21.47,7.19,7.87,0,*46
1501329860.83,20429,19.94,74280.5,21.49,7.61,8.33,0,*46
1501329862.02,20430,19.94,74284.5,21.49,7.51,8.23,0,*4C
1501329863.23,20431,19.94,74282.5,21.49,7.09,7.77,0,*4E
1501329864.47,20432,19.94,74282.5,21.51,6.61,7.29,0,*40
1501329865.69,20433,19.94,74284.3,21.51,6.97,7.79,0,*4D
1501329866.95,20434,19.94,74282.5,21.51,6.69,7.47,0,*46
1501329868.13,20435,19.94,74288.3,21.53,7.33,8.19,0,*4F
1501329869.34,20436,19.88,74282.5,21.57,7.37,8.15,0,*40
1501329870.58,20437,19.94,74284.5,21.57,6.93,7.87,0,*4A
1501329871.81,20438,19.94,74284.5,21.61,7.45,8.47,0,*49
1501329873.0,20439,19.94,74282.8,21.63,8.01,9.03,0,*44
1501329874.23,20440,19.94,74282.8,21.65,7.23,8.23,0,*40
1501329875.44,20441,19.94,74284.3,21.67,7.65,8.61,0,*47
1501329876.65,20442,19.94,74284.3,21.69,8.01,8.87,0,*4F
1501329877.84,20443,19.94,74284.0,21.71,8.01,8.83,0,*43
1501329879.09,20444,19.94,74284.3,21.73,7.95,8.71,0,*49
1501329880.32,20445,19.94,74284.3,21.75,7.77,8.51,0,*40
1501329881.58,20446,19.94,74282.0,21.81,7.83,8.51,0,*43
1501329882.78,20447,19.94,74282.8,21.83,7.47,8.23,0,*4D
1501329883.99,20448,19.88,74280.3,21.83,7.23,7.79,0,*40
1501329885.18,20449,19.94,74284.3,21.83,6.93,7.29,0,*4E
1501329886.37,20450,19.94,74284.5,21.83,7.05,7.55,0,*43
1501329887.6,20451,19.94,74282.5,21.85,6.61,6.93,0,*4C
1501329888.78,20452,19.94,74286.5,21.83,7.55,7.59,0,*48
1501329890.02,20453,19.94,74286.8,21.83,7.23,6.87,0,*4A
1501329891.23,20454,19.94,74286.8,21.83,6.65,6.29,0,*4A
1501329892.45,20455,19.94,74286.8,21.81,7.37,6.65,0,*47
1501329893.64,20456,19.94,74284.3,21.79,6.97,6.25,0,*4C
1501329894.85,20457,19.94,74284.8,21.79,7.77,7.01,0,*45
1501329896.06,20458,19.94,74286.8,21.79,9.07,8.41,0,*48
1501329897.24,20459,19.94,74284.8,21.83,8.69,8.01,0,*41
1501329898.47,20460,19.94,74280.8,21.81,7.91,7.37,0,*4B
1501329899.66,20461,19.94,74282.0,21.79,8.09,7.59,0,*4B
1501329900.89,20462,19.94,74286.3,21.81,8.01,7.65,0,*48
1501329902.1,20463,19.94,74286.3,21.81,9.03,8.69,0,*49
1501329903.33,20464,19.94,74284.8,21.81,8.93,8.83,0,*42
1501329904.59,20465,19.94,74284.8,21.81,10.27,10.27,0,*42
1501329905.81,20466,19.94,74284.0,21.85,10.09,9.95,0,*78
1501329907.03,20467,19.94,74284.8,21.85,9.29,9.19,0,*47
1501329908.24,20468,19.94,74286.0,21.85,9.91,9.99,0,*43
1501329909.46,20469,19.94,74284.0,21.87,10.37,10.51,0,*48
1501329910.72,20470,19.94,74286.3,21.91,10.65,10.57,0,*46
1501329911.95,20471,19.94,74282.5,21.89,9.53,9.77,0,*49
1501329913.21,20472,19.94,74280.3,21.91,9.57,9.77,0,*47
1501329914.45,20473,19.94,74284.3,21.91,9.47,9.61,0,*40
1501329915.65,20474,19.94,74284.8,21.93,9.25,9.39,0,*4C
1501329916.88,20475,19.94,74282.3,21.93,9.39,9.61,0,*4D
1501329918.11,20476,19.94,74280.3,21.93,8.51,8.71,0,*41
1501329919.33,20477,19.94,74286.3,21.91,8.79,9.03,0,*4C
1501329920.53,20478,19.94,74282.8,21.91,8.45,8.69,0,*41
1501329921.77,20479,19.94,74284.0,21.91,8.47,8.83,0,*46
1501329923.0,20480,19.94,74284.8,21.91,8.69,9.01,0,*47
1501329924.24,20481,19.94,74284.0,21.91,8.89,9.21,0,*4A
1501329925.44,20482,19.94,74282.0,21.91,8.61,8.83,0,*46
1501329926.65,20483,19.94,74280.5,21.89,7.87,8.01,0,*43
1501329927.86,20484,19.94,74280.3,21.87,7.59,7.73,0,*43
1501329929.07,20485,19.94,74284.5,21.83,7.45,7.47,0,*4C
1501329930.29,20486,19.94,74284.0,21.83,7.65,7.83,0,*45
1501329931.48,20487,19.94,74284.5,21.79,6.97,6.97,0,*49
1501329932.66,20488,19.94,74284.5,21.79,7.01,7.01,0,*46
1501329933.89,20489,19.94,74282.5,21.75,7.27,7.27,0,*4B
1501329935.1,20490,19.94,74286.5,21.71,6.87,6.93,0,*42
1501329936.33,20491,19.94,74284.8,21.67,6.17,6.13,0,*45
1501329937.57,20492,19.94,74286.5,21.65,6.35,6.25,0,*41
1501329938.79,20493,19.94,74282.5,21.61,6.29,6.21,0,*4D
1501329940.02,20494,19.94,74286.5,21.57,6.75,6.73,0,*41
1501329941.25,20495,19.94,74284.0,21.57,6.83,6.73,0,*49
1501329942.45,20496,19.94,74284.3,21.53,7.45,7.27,0,*45
1501329943.72,20497,19.94,74284.8,21.51,6.87,6.65,0,*4E
1501329944.93,20498,19.94,74284.8,21.47,7.05,7.09,0,*46
1501329946.11,20499,19.94,74284.0,21.45,7.01,6.93,0,*43
1501329947.32,20500,19.94,74286.3,21.43,6.75,6.75,0,*4E
1501329948.5,20501,19.94,74284.0,21.41,7.45,7.37,0,*48
1501329949.76,20502,19.94,74284.5,21.39,7.65,7.47,0,*41
1501329951.0,20503,19.94,74284.8,21.39,7.15,6.97,0,*4B
1501329952.19,20504,19.94,74284.3,21.37,7.37,7.29,0,*46
1501329953.44,20505,19.94,74286.5,21.37,7.73,7.73,0,*48
1501329954.7,20506,19.94,74286.5,21.35,6.69,6.47,0,*45
1501329955.9,20507,19.94,74286.5,21.29,6.03,6.03,0,*45
1501329957.09,20508,19.94,74286.5,21.29,5.59,5.59,0,*4A
1501329958.29,20509,19.94,74282.5,21.23,6.11,6.07,0,*46
1501329959.52,20510,19.94,74284.5,21.21,6.43,6.43,0,*4B
1501329960.77,20511,19.94,74284.3,21.19,5.93,5.93,0,*41
1501329961.97,20512,19.94,74286.8,21.17,6.39,6.29,0,*4D
1501329963.19,20513,19.94,74286.0,21.17,6.61,6.57,0,*48
1501329964.39,20514,19.94,74284.8,21.13,6.35,6.25,0,*4F
1501329965.63,20515,19.94,74286.0,21.07,6.61,6.57,0,*4F
1501329966.86,20516,19.94,74284.8,21.07,6.47,6.29,0,*41
1501329968.08,20517,19.94,74282.0,21.07,5.77,5.71,0,*4E
1501329969.26,20518,19.94,74288.8,21.01,6.21,6.29,0,*49
1501329970.46,20519,19.94,74284.0,21.01,6.17,6.29,0,*4D
1501329971.7,20520,19.94,74284.0,20.99,5.81,5.77,0,*43
1501329972.96,20521,19.94,74280.8,20.95,6.47,6.43,0,*43
1501329974.17,20522,19.94,74282.3,20.95,6.25,6.25,0,*44
1501329975.35,20523,19.94,74280.5,20.91,5.99,6.07,0,*45
1501329976.55,20524,19.94,74280.0,20.91,6.13,6.07,0,*43
1501329977.75,20525,19.94,74286.3,20.85,4.81,4.81,0,*42
1501329978.95,20526,19.94,74282.8,20.83,4.59,4.49,0,*46
1501329980.16,20527,19.94,74286.5,20.77,5.33,5.33,0,*4D
1501329981.34,20528,19.94,74284.0,20.79,5.67,5.59,0,*41
1501329982.57,20529,19.94,74280.3,20.73,4.93,4.81,0,*44
1501329983.8,20530,19.94,74284.5,20.69,4.85,4.79,0,*47
1501329984.99,20531,19.94,74280.0,20.67,5.67,5.63,0,*4F
1501329986.2,20532,19.94,74280.8,20.63,5.89,5.95,0,*41
1501329987.4,20533,19.94,74282.8,20.63,5.49,5.51,0,*44
1501329988.66,20534,19.94,74284.5,20.59,5.93,5.93,0,*43
1501329989.85,20535,19.94,74284.8,20.57,6.33,6.33,0,*4C
1501329991.06,20536,19.94,74280.0,20.55,5.15,5.07,0,*4E
1501329992.24,20537,19.94,74282.8,20.53,5.63,5.59,0,*43
1501329993.46,20538,19.94,74280.3,20.51,5.51,5.49,0,*4E
1501329994.69,20539,19.94,74284.8,20.47,5.85,5.95,0,*40
1501329995.95,20540,19.94,74282.8,20.47,6.47,6.53,0,*4A
1501329997.19,20541,19.94,74282.8,20.47,6.21,6.17,0,*4B
1501329998.39,20542,19.94,74284.8,20.47,6.75,6.75,0,*4D
1501329999.65,20543,19.94,74284.5,20.43,6.87,6.91,0,*4F
1501330000.85,20544,19.94,74284.3,20.43,5.71,5.63,0,*4C
1501330002.08,20545,19.94,74284.3,20.37,5.81,5.77,0,*44
1501330003.29,20546,19.94,74282.8,20.37,6.13,6.11,0,*4C
1501330004.51,20547,19.94,74284.0,20.37,5.77,5.81,0,*46
1501330005.71,20548,19.94,74280.0,20.35,5.29,5.29,0,*42
1501330006.9,20549,19.94,74280.0,20.33,5.63,5.71,0,*46
1501330008.11,20550,19.94,74280.5,20.31,5.49,5.59,0,*4E
1501330009.3,20551,19.94,74282.8,20.29,4.07,4.15,0,*44
1501330010.52,20552,19.94,74282.0,20.25,4.01,4.07,0,*4E
1501330011.7,20553,19.94,74280.8,20.23,5.63,5.63,0,*4F
1501330012.91,20554,19.94,74280.0,20.17,5.11,5.29,0,*44
1501330014.14,20555,19.94,74284.8,20.17,5.11,5.05,0,*4B
1501330015.33,20556,19.94,74282.8,20.15,5.33,5.29,0,*44
1501330016.54,20557,19.94,74284.3,20.15,5.07,4.97,0,*46
1501330017.75,20558,19.94,74280.0,20.11,5.33,5.27,0,*40
1501330018.95,20559,19.94,74280.3,20.07,4.75,4.53,0,*47
1501330020.16,20560,19.94,74280.5,20.07,3.79,3.59,0,*4B
1501330021.37,20561,19.94,74280.8,20.05,5.37,5.37,0,*4A
1501330022.55,20562,20.0,74286.8,20.03,6.29,6.29,0,*4F
1501330023.79,20563,19.94,74282.5,20.03,6.43,6.43,0,*4E
1501330024.99,20564,20.0,74284.0,20.01,6.83,6.93,0,*4A
1501330026.25,20565,19.94,74282.8,20.01,6.65,6.73,0,*4D
1501330027.5,20566,19.94,74280.5,20.01,5.85,5.93,0,*4E
1501330028.75,20567,19.94,74280.5,20.01,5.27,5.27,0,*48
1501330029.93,20568,19.94,74280.0,19.95,4.33,4.33,0,*40
1501330031.19,20569,19.94,74282.3,19.93,4.79,4.79,0,*47
1501330032.4,20570,19.94,74280.3,19.89,5.23,5.33,0,*45
1501330033.57,20571,19.94,74276.0,19.91,5.37,5.37,0,*4C
1501330034.77,20572,19.94,74282.5,19.87,5.45,5.51,0,*4D
1501330035.94,20573,19.94,74280.0,19.87,4.49,4.49,0,*49
1501330037.14,20574,19.94,74280.8,19.85,4.23,4.11,0,*4D
1501330038.38,20575,20.0,74284.0,19.83,4.31,4.31,0,*4B
1501330039.64,20576,20.0,74282.0,19.81,3.49,3.33,0,*47
1501330040.82,20577,19.94,74278.3,19.75,3.93,3.93,0,*40
1501330042.07,20578,19.94,74282.0,19.71,4.71,4.71,0,*4B
1501330043.27,20579,19.94,74282.3,19.69,4.85,4.85,0,*43
1501330044.48,20580,20.0,74284.0,19.69,5.33,5.37,0,*41
1501330045.73,20581,20.0,74286.3,19.69,5.81,5.93,0,*47
1501330046.91,20582,19.94,74276.8,19.67,5.33,5.29,0,*42
1501330048.11,20583,19.94,74278.5,19.67,5.51,5.63,0,*49
1501330049.37,20584,20.0,74282.3,19.69,5.89,5.93,0,*4A
1501330050.59,20585,19.94,74280.8,19.67,6.25,6.35,0,*4F
1501330051.84,20586,20.0,74282.3,19.65,6.47,6.57,0,*4E
1501330053.1,20587,19.94,74278.3,19.65,6.43,6.53,0,*4F
1501330054.31,20588,19.94,74276.5,19.67,6.65,6.79,0,*4E
1501330055.55,20589,19.94,74276.5,19.67,6.43,6.47,0,*46
1501330056.73,20590,19.94,74278.0,19.67,5.99,5.95,0,*46
1501330057.92,20591,19.94,74278.3,19.67,5.67,5.67,0,*4B
1501330059.1,20592,19.94,74278.5,19.67,4.85,4.85,0,*48
1501330060.32,20593,20.0,74278.0,19.63,5.49,5.51,0,*44
1501330061.5,20594,19.94,74276.0,19.61,5.15,5.15,0,*48
1501330062.75,20595,20.0,74278.8,19.59,5.85,5.77,0,*4F
1501330063.98,20596,20.0,74278.5,19.57,5.93,5.77,0,*45
1501330065.18,20597,20.0,74280.0,19.57,5.73,5.63,0,*4F
1501330066.4,20598,19.94,74274.5,19.55,5.51,5.41,0,*42
1501330067.61,20599,20.0,74278.3,19.55,5.11,5.19,0,*4A
1501330068.79,20600,20.0,74278.0,19.49,4.41,4.19,0,*41
1501330070.02,20601,19.94,74272.5,19.47,4.97,4.85,0,*40
1501330071.24,20602,19.94,74274.0,19.47,5.19,5.23,0,*49
1501330072.42,20603,19.94,74276.3,19.45,5.37,5.41,0,*42
1501330073.68,20604,19.94,74274.5,19.43,5.01,4.93,0,*48
1501330074.87,20605,20.0,74276.5,19.41,5.33,5.33,0,*41
1501330076.1,20606,20.0,74276.0,19.39,5.55,5.63,0,*48
1501330077.37,20607,20.0,74276.5,19.39,4.71,4.71,0,*4C
1501330078.58,20608,20.0,74278.0,19.37,4.53,4.63,0,*4E
1501330079.79,20609,19.94,74274.3,19.33,4.31,4.23,0,*4B
1501330081.0,20610,20.0,74276.3,19.27,4.81,4.79,0,*42
1501330082.23,20611,20.0,74276.3,19.27,4.63,4.63,0,*44
1501330083.43,20612,20.0,74278.0,19.25,3.85,3.93,0,*42
1501330084.65,20613,19.94,74274.8,19.23,4.01,4.01,0,*42
1501330085.86,20614,20.0,74276.3,19.21,3.93,3.93,0,*47
1501330087.09,20615,20.0,74274.0,19.17,3.55,3.49,0,*4E
1501330088.31,20616,20.0,74274.8,19.15,3.33,3.19,0,*4A
1501330089.54,20617,19.94,74274.3,19.11,3.15,3.11,0,*43
1501330090.73,20618,20.0,74276.5,19.07,3.81,3.81,0,*4F
1501330091.91,20619,20.0,74278.0,19.07,4.15,4.11,0,*4A
1501330093.17,20620,20.0,74276.3,19.01,3.67,3.67,0,*42
1501330094.38,20621,20.0,74274.8,18.97,4.11,4.05,0,*48
1501330095.57,20622,19.94,74272.3,18.97,4.49,4.37,0,*47
1501330096.77,20623,19.94,74272.3,18.93,3.97,3.89,0,*44
1501330097.95,20624,20.0,74274.8,18.93,4.45,4.23,0,*4C
1501330099.2,20625,19.94,74272.8,18.91,3.33,3.23,0,*4E
1501330100.43,20626,19.94,74272.0,18.87,3.29,3.23,0,*41
1501330101.64,20627,20.0,74274.0,18.85,3.55,3.49,0,*45
1501330102.91,20628,20.0,74276.5,18.79,4.05,4.05,0,*44
1501330104.14,20629,20.0,74272.8,18.79,3.63,3.53,0,*46
1501330105.39,20630,20.0,74272.8,18.75,2.85,2.69,0,*43
1501330106.65,20631,19.94,74272.0,18.71,3.37,3.33,0,*40
1501330107.87,20632,20.0,74274.0,18.71,3.97,3.85,0,*44
1501330109.08,20633,19.94,74272.5,18.69,4.63,4.53,0,*4C
1501330110.29,20634,19.94,74272.0,18.67,3.81,3.67,0,*4E
1501330111.49,20635,20.0,74272.8,18.67,3.55,3.45,0,*46
1501330112.66,20636,19.94,74272.5,18.63,4.27,4.27,0,*40
1501330113.86,20637,20.0,74274.8,18.63,4.67,4.49,0,*4D
1501330115.09,20638,20.0,74272.3,18.57,3.55,3.37,0,*4D
1501330116.32,20639,20.0,74274.3,18.53,2.73,2.61,0,*4F
1501330117.52,20640,20.0,74276.3,18.53,3.29,3.29,0,*42
1501330118.73,20641,20.0,74276.3,18.49,3.93,3.81,0,*4B
1501330119.98,20642,20.0,74274.0,18.49,3.49,3.45,0,*47
1501330121.19,20643,20.0,74272.8,18.45,3.89,3.85,0,*4A
1501330122.39,20644,20.0,74276.0,18.45,4.45,4.37,0,*44